Time,TemperatureF,DewpointF,PressureIn,WindDirection,WindDirectionDegrees,WindSpeedMPH,WindSpeedGustMPH,Humidity,HourlyPrecipIn,Conditions,Clouds,dailyrainin,SoftwareType,DateUTC
2013-04-06 00:02:00,37.5,26.5,29.88,West,267,1.0,12.0,64,0.00,,CLR,0.00,VWS V14.00,2013-04-06 04:02:00,
2013-04-06 00:03:00,37.4,26.4,29.88,NNW,345,2.0,6.0,64,0.00,,CLR,0.00,VWS V14.00,2013-04-06 04:03:00,
2013-04-06 00:08:00,37.4,26.4,29.88,NW,325,3.0,13.0,64,0.00,,CLR,0.00,VWS V14.00,2013-04-06 04:08:00,
2013-04-06 00:13:00,37.3,26.3,29.89,NNW,336,2.0,13.0,64,0.00,,CLR,0.00,VWS V14.00,2013-04-06 04:13:00,
2013-04-06 00:18:00,37.0,25.6,29.89,NW,324,2.0,13.0,63,0.00,,CLR,0.00,VWS V14.00,2013-04-06 04:18:00,
2013-04-06 00:23:00,36.8,25.4,29.89,NW,309,1.0,13.0,63,0.00,,CLR,0.00,VWS V14.00,2013-04-06 04:23:00,
2013-04-06 00:28:00,36.7,25.3,29.88,NNW,328,11.0,13.0,63,0.00,,CLR,0.00,VWS V14.00,2013-04-06 04:28:00,
2013-04-06 00:33:00,36.5,25.1,29.89,NW,317,4.0,10.0,63,0.00,,CLR,0.00,VWS V14.00,2013-04-06 04:33:00,
2013-04-06 00:38:00,36.4,25.0,29.89,North,355,6.0,11.0,63,0.00,,CLR,0.00,VWS V14.00,2013-04-06 04:38:00,
2013-04-06 00:43:00,36.3,25.3,29.88,WNW,287,1.0,11.0,64,0.00,,CLR,0.00,VWS V14.00,2013-04-06 04:43:00,
2013-04-06 00:48:00,36.1,24.7,29.89,NNW,327,1.0,11.0,63,0.00,,CLR,0.00,VWS V14.00,2013-04-06 04:48:00,
2013-04-06 00:53:00,36.0,25.0,29.89,NNW,346,3.0,11.0,64,0.00,,CLR,0.00,VWS V14.00,2013-04-06 04:53:00,
2013-04-06 00:58:00,35.8,24.8,29.89,NNE,20,4.0,11.0,64,0.00,,CLR,0.00,VWS V14.00,2013-04-06 04:58:00,
2013-04-06 01:03:00,35.7,24.7,29.89,NNW,342,4.0,8.0,64,0.00,,CLR,0.00,VWS V14.00,2013-04-06 05:03:00,
2013-04-06 01:08:00,35.4,24.5,29.89,NNW,334,5.0,8.0,64,0.00,,CLR,0.00,VWS V14.00,2013-04-06 05:08:00,
2013-04-06 01:13:00,35.4,24.1,29.89,WNW,302,4.0,8.0,63,0.00,,CLR,0.00,VWS V14.00,2013-04-06 05:13:00,
2013-04-06 01:18:00,35.4,24.5,29.90,NW,310,4.0,11.0,64,0.00,,CLR,0.00,VWS V14.00,2013-04-06 05:18:00,
2013-04-06 01:23:00,35.4,24.5,29.91,NW,316,5.0,11.0,64,0.00,,CLR,0.00,VWS V14.00,2013-04-06 05:23:00,
2013-04-06 01:28:00,35.4,24.1,29.90,NNW,342,2.0,13.0,63,0.00,,CLR,0.00,VWS V14.00,2013-04-06 05:28:00,
2013-04-06 01:33:00,35.4,23.7,29.91,NNW,327,9.0,9.0,62,0.00,,CLR,0.00,VWS V14.00,2013-04-06 05:33:00,
2013-04-06 01:38:00,35.4,23.7,29.90,North,359,5.0,12.0,62,0.00,,CLR,0.00,VWS V14.00,2013-04-06 05:38:00,
2013-04-06 01:43:00,35.3,23.6,29.91,NW,320,5.0,12.0,62,0.00,,CLR,0.00,VWS V14.00,2013-04-06 05:43:00,
2013-04-06 01:48:00,35.1,23.8,29.91,WNW,290,8.0,12.0,63,0.00,,CLR,0.00,VWS V14.00,2013-04-06 05:48:00,
2013-04-06 01:53:00,35.1,23.4,29.91,NNW,329,4.0,12.0,62,0.00,,CLR,0.00,VWS V14.00,2013-04-06 05:53:00,
2013-04-06 01:58:00,35.0,23.3,29.91,NW,318,4.0,12.0,62,0.00,,CLR,0.00,VWS V14.00,2013-04-06 05:58:00,
2013-04-06 02:03:00,34.8,23.1,29.91,North,356,2.0,4.0,62,0.00,,CLR,0.00,VWS V14.00,2013-04-06 06:03:00,
2013-04-06 02:08:00,34.5,23.2,29.91,NNW,342,4.0,7.0,63,0.00,,CLR,0.00,VWS V14.00,2013-04-06 06:08:00,
2013-04-06 02:13:00,34.4,23.1,29.92,NNW,332,2.0,7.0,63,0.00,,CLR,0.00,VWS V14.00,2013-04-06 06:13:00,
2013-04-06 02:18:00,34.1,23.2,29.92,NNW,332,2.0,7.0,64,0.00,,CLR,0.00,VWS V14.00,2013-04-06 06:18:00,
2013-04-06 02:23:00,33.8,23.3,29.92,NNW,345,1.0,7.0,65,0.00,,CLR,0.00,VWS V14.00,2013-04-06 06:23:00,
2013-04-06 02:28:00,33.7,22.8,29.93,NNW,345,1.0,7.0,64,0.00,,CLR,0.00,VWS V14.00,2013-04-06 06:28:00,
2013-04-06 02:33:00,33.5,22.3,29.92,NNW,346,5.0,11.0,63,0.00,,CLR,0.00,VWS V14.00,2013-04-06 06:33:00,
2013-04-06 02:38:00,33.8,22.2,29.92,NW,323,2.0,11.0,62,0.00,,CLR,0.00,VWS V14.00,2013-04-06 06:38:00,
2013-04-06 02:43:00,33.8,22.2,29.93,NNW,345,3.0,11.0,62,0.00,,CLR,0.00,VWS V14.00,2013-04-06 06:43:00,
2013-04-06 02:48:00,33.7,21.3,29.93,NNW,328,9.0,11.0,60,0.00,,CLR,0.00,VWS V14.00,2013-04-06 06:48:00,
2013-04-06 02:53:00,33.7,20.9,29.93,NW,310,5.0,11.0,59,0.00,,CLR,0.00,VWS V14.00,2013-04-06 06:53:00,
2013-04-06 02:58:00,33.7,21.3,29.94,NW,312,1.0,11.0,60,0.00,,CLR,0.00,VWS V14.00,2013-04-06 06:58:00,
2013-04-06 03:03:00,33.4,21.0,29.93,North,350,9.0,15.0,60,0.00,,CLR,0.00,VWS V14.00,2013-04-06 07:03:00,
2013-04-06 03:08:00,33.5,20.7,29.93,WNW,282,5.0,15.0,59,0.00,,CLR,0.00,VWS V14.00,2013-04-06 07:08:00,
2013-04-06 03:13:00,33.5,20.3,29.94,NNW,331,6.0,15.0,58,0.00,,CLR,0.00,VWS V14.00,2013-04-06 07:13:00,
2013-04-06 03:18:00,33.4,20.2,29.94,NW,314,3.0,15.0,58,0.00,,CLR,0.00,VWS V14.00,2013-04-06 07:18:00,
2013-04-06 03:23:00,33.4,19.8,29.95,North,352,5.0,15.0,57,0.00,,CLR,0.00,VWS V14.00,2013-04-06 07:23:00,
2013-04-06 03:28:00,33.3,19.7,29.95,WNW,303,3.0,20.0,57,0.00,,CLR,0.00,VWS V14.00,2013-04-06 07:28:00,
2013-04-06 03:33:00,33.1,19.5,29.97,WNW,292,3.0,15.0,57,0.00,,CLR,0.00,VWS V14.00,2013-04-06 07:33:00,
2013-04-06 03:38:00,33.0,19.4,29.96,NNW,337,4.0,15.0,57,0.00,,CLR,0.00,VWS V14.00,2013-04-06 07:38:00,
2013-04-06 03:43:00,32.7,19.2,29.97,NW,319,10.0,16.0,57,0.00,,CLR,0.00,VWS V14.00,2013-04-06 07:43:00,
2013-04-06 03:48:00,32.6,19.1,29.97,NNW,343,2.0,16.0,57,0.00,,CLR,0.00,VWS V14.00,2013-04-06 07:48:00,
2013-04-06 03:53:00,32.6,19.1,29.98,North,352,4.0,16.0,57,0.00,,CLR,0.00,VWS V14.00,2013-04-06 07:53:00,
2013-04-06 03:58:00,32.5,18.6,29.97,North,3,2.0,16.0,56,0.00,,CLR,0.00,VWS V14.00,2013-04-06 07:58:00,
2013-04-06 04:03:00,32.3,18.4,29.98,NW,323,7.0,18.0,56,0.00,,CLR,0.00,VWS V14.00,2013-04-06 08:03:00,
2013-04-06 04:08:00,32.3,18.4,29.98,NW,322,8.0,18.0,56,0.00,,CLR,0.00,VWS V14.00,2013-04-06 08:08:00,
2013-04-06 04:13:00,32.1,18.2,29.98,WNW,285,5.0,22.0,56,0.00,,CLR,0.00,VWS V14.00,2013-04-06 08:13:00,
2013-04-06 04:18:00,32.0,18.1,29.99,NW,314,6.0,22.0,56,0.00,,CLR,0.00,VWS V14.00,2013-04-06 08:18:00,
2013-04-06 04:23:00,31.9,18.0,29.99,NNW,342,5.0,22.0,56,0.00,,CLR,0.00,VWS V14.00,2013-04-06 08:23:00,
2013-04-06 04:28:00,31.7,18.2,30.00,NNW,343,1.0,22.0,57,0.00,,CLR,0.00,VWS V14.00,2013-04-06 08:28:00,
2013-04-06 04:33:00,31.4,18.7,30.00,NNW,345,3.0,7.0,59,0.00,,CLR,0.00,VWS V14.00,2013-04-06 08:33:00,
2013-04-06 04:38:00,31.3,18.6,30.00,WSW,239,9.0,10.0,59,0.00,,CLR,0.00,VWS V14.00,2013-04-06 08:38:00,
2013-04-06 04:43:00,31.3,18.6,30.00,NW,317,6.0,12.0,59,0.00,,CLR,0.00,VWS V14.00,2013-04-06 08:43:00,
2013-04-06 04:48:00,31.3,18.6,30.01,West,275,0.0,13.0,59,0.00,,CLR,0.00,VWS V14.00,2013-04-06 08:48:00,
2013-04-06 04:53:00,31.1,18.5,30.01,WNW,294,4.0,13.0,59,0.00,,CLR,0.00,VWS V14.00,2013-04-06 08:53:00,
2013-04-06 04:58:00,31.1,18.9,30.01,North,0,4.0,13.0,60,0.00,,CLR,0.00,VWS V14.00,2013-04-06 08:58:00,
2013-04-06 05:03:00,31.1,18.9,30.01,NNW,345,2.0,8.0,60,0.00,,CLR,0.00,VWS V14.00,2013-04-06 09:03:00,
2013-04-06 05:08:00,31.3,19.4,30.02,NNW,344,2.0,10.0,61,0.00,,CLR,0.00,VWS V14.00,2013-04-06 09:08:00,
2013-04-06 05:13:00,31.3,19.4,30.03,North,351,3.0,10.0,61,0.00,,CLR,0.00,VWS V14.00,2013-04-06 09:13:00,
2013-04-06 05:18:00,31.4,19.1,30.03,NNW,347,1.0,12.0,60,0.00,,CLR,0.00,VWS V14.00,2013-04-06 09:18:00,
2013-04-06 05:23:00,31.4,19.1,30.04,NW,311,3.0,12.0,60,0.00,,CLR,0.00,VWS V14.00,2013-04-06 09:23:00,
2013-04-06 05:28:00,31.4,19.1,30.04,NNW,327,3.0,13.0,60,0.00,,CLR,0.00,VWS V14.00,2013-04-06 09:28:00,
2013-04-06 05:33:00,31.4,19.1,30.04,NW,312,5.0,6.0,60,0.00,,CLR,0.00,VWS V14.00,2013-04-06 09:33:00,
2013-04-06 05:38:00,31.3,19.0,30.04,North,350,8.0,13.0,60,0.00,,CLR,0.00,VWS V14.00,2013-04-06 09:38:00,
2013-04-06 05:43:00,31.3,19.4,30.05,NW,321,4.0,13.0,61,0.00,,CLR,0.00,VWS V14.00,2013-04-06 09:43:00,
2013-04-06 05:48:00,31.1,19.2,30.05,NNW,332,4.0,13.0,61,0.00,,CLR,0.00,VWS V14.00,2013-04-06 09:48:00,
2013-04-06 05:53:00,31.1,19.2,30.05,NNW,343,3.0,13.0,61,0.00,,CLR,0.00,VWS V14.00,2013-04-06 09:53:00,
2013-04-06 05:58:00,31.0,19.1,30.06,NW,318,12.0,13.0,61,0.00,,CLR,0.00,VWS V14.00,2013-04-06 09:58:00,
2013-04-06 06:03:00,30.8,18.2,30.06,North,350,5.0,12.0,59,0.00,,SCT060,0.00,VWS V14.00,2013-04-06 10:03:00,
2013-04-06 06:08:00,30.7,17.7,30.07,NW,309,6.0,12.0,58,0.00,,SCT060,0.00,VWS V14.00,2013-04-06 10:08:00,
2013-04-06 06:13:00,30.7,17.3,30.07,North,1,1.0,13.0,57,0.00,,SCT060,0.00,VWS V14.00,2013-04-06 10:13:00,
2013-04-06 06:18:00,30.6,17.6,30.08,WNW,282,5.0,13.0,58,0.00,,SCT060,0.00,VWS V14.00,2013-04-06 10:18:00,
2013-04-06 06:23:00,30.4,17.0,30.08,North,354,4.0,13.0,57,0.00,,SCT060,0.00,VWS V14.00,2013-04-06 10:23:00,
2013-04-06 06:28:00,30.4,16.6,30.09,NNW,335,3.0,13.0,56,0.00,,SCT060,0.00,VWS V14.00,2013-04-06 10:28:00,
2013-04-06 06:33:00,30.6,16.8,30.09,NNW,337,3.0,9.0,56,0.00,,SCT060,0.00,VWS V14.00,2013-04-06 10:33:00,
2013-04-06 06:38:00,30.4,16.2,30.09,NW,326,1.0,9.0,55,0.00,,SCT060,0.00,VWS V14.00,2013-04-06 10:38:00,
2013-04-06 06:43:00,30.2,16.0,30.10,North,8,4.0,12.0,55,0.00,,SCT060,0.00,VWS V14.00,2013-04-06 10:43:00,
2013-04-06 06:48:00,30.1,15.1,30.10,NNE,13,9.0,13.0,53,0.00,,SCT060,0.00,VWS V14.00,2013-04-06 10:48:00,
2013-04-06 06:53:00,29.8,14.8,30.10,North,10,2.0,13.0,53,0.00,,SCT060,0.00,VWS V14.00,2013-04-06 10:53:00,
2013-04-06 06:58:00,29.6,15.0,30.11,NNW,348,3.0,3.0,54,0.00,,SCT060,0.00,VWS V14.00,2013-04-06 10:58:00,
2013-04-06 07:03:00,29.5,14.1,30.12,NNE,22,12.0,14.0,52,0.00,,BKN055,0.00,VWS V14.00,2013-04-06 11:03:00,
2013-04-06 07:08:00,29.3,13.4,30.11,SE,133,8.0,19.0,51,0.00,,BKN055,0.00,VWS V14.00,2013-04-06 11:08:00,
2013-04-06 07:13:00,29.3,13.0,30.12,WNW,296,2.0,19.0,50,0.00,,BKN055,0.00,VWS V14.00,2013-04-06 11:13:00,
2013-04-06 07:18:00,29.3,13.4,30.12,NW,321,7.0,19.0,51,0.00,,BKN055,0.00,VWS V14.00,2013-04-06 11:18:00,
2013-04-06 07:23:00,29.3,13.4,30.12,ESE,122,10.0,19.0,51,0.00,,BKN055,0.00,VWS V14.00,2013-04-06 11:23:00,
2013-04-06 07:28:00,29.5,13.2,30.13,NNW,336,7.0,15.0,50,0.00,,BKN055,0.00,VWS V14.00,2013-04-06 11:28:00,
2013-04-06 07:33:00,29.5,13.2,30.13,SSE,155,8.0,15.0,50,0.00,,BKN055,0.00,VWS V14.00,2013-04-06 11:33:00,
2013-04-06 07:38:00,29.5,13.2,30.13,North,358,8.0,15.0,50,0.00,,BKN055,0.00,VWS V14.00,2013-04-06 11:38:00,
2013-04-06 07:43:00,29.5,13.2,30.14,NW,305,2.0,15.0,50,0.00,,BKN055,0.00,VWS V14.00,2013-04-06 11:43:00,
2013-04-06 07:48:00,29.6,13.3,30.13,NNW,334,2.0,15.0,50,0.00,,BKN055,0.00,VWS V14.00,2013-04-06 11:48:00,
2013-04-06 07:53:00,29.6,13.3,30.14,NNW,336,14.0,15.0,50,0.00,,BKN055,0.00,VWS V14.00,2013-04-06 11:53:00,
2013-04-06 07:58:00,29.6,12.3,30.14,North,353,2.0,17.0,48,0.00,,BKN055,0.00,VWS V14.00,2013-04-06 11:58:00,
2013-04-06 08:03:00,30.0,12.2,30.14,WSW,253,6.0,18.0,47,0.00,,CLR,0.00,VWS V14.00,2013-04-06 12:03:00,
2013-04-06 08:08:00,29.9,10.6,30.14,NW,325,4.0,20.0,44,0.00,,CLR,0.00,VWS V14.00,2013-04-06 12:08:00,
2013-04-06 08:13:00,30.1,11.3,30.15,NNW,331,5.0,20.0,45,0.00,,CLR,0.00,VWS V14.00,2013-04-06 12:13:00,
2013-04-06 08:18:00,30.4,10.1,30.15,NNW,331,11.0,20.0,42,0.00,,CLR,0.00,VWS V14.00,2013-04-06 12:18:00,
2013-04-06 08:23:00,30.4,10.6,30.15,NNW,327,12.0,20.0,43,0.00,,CLR,0.00,VWS V14.00,2013-04-06 12:23:00,
2013-04-06 08:28:00,30.4,10.6,30.15,NNW,332,5.0,20.0,43,0.00,,CLR,0.00,VWS V14.00,2013-04-06 12:28:00,
2013-04-06 08:33:00,30.4,10.1,30.16,NNW,335,4.0,16.0,42,0.00,,CLR,0.00,VWS V14.00,2013-04-06 12:33:00,
2013-04-06 08:38:00,30.4,10.1,30.16,NE,55,5.0,16.0,42,0.00,,CLR,0.00,VWS V14.00,2013-04-06 12:38:00,
2013-04-06 08:43:00,30.6,10.2,30.16,ESE,104,9.0,16.0,42,0.00,,CLR,0.00,VWS V14.00,2013-04-06 12:43:00,
2013-04-06 08:48:00,30.5,10.2,30.16,NW,304,5.0,19.0,42,0.00,,CLR,0.00,VWS V14.00,2013-04-06 12:48:00,
2013-04-06 08:53:00,30.7,10.3,30.16,NW,322,4.0,19.0,42,0.00,,CLR,0.00,VWS V14.00,2013-04-06 12:53:00,
2013-04-06 08:58:00,31.0,10.6,30.16,North,0,3.0,21.0,42,0.00,,CLR,0.00,VWS V14.00,2013-04-06 12:58:00,
2013-04-06 09:03:00,31.3,10.9,30.17,NW,309,5.0,16.0,42,0.00,,FEW060,0.00,VWS V14.00,2013-04-06 13:03:00,
2013-04-06 09:08:00,31.4,11.5,30.17,NW,323,4.0,17.0,43,0.00,,FEW060,0.00,VWS V14.00,2013-04-06 13:08:00,
2013-04-06 09:13:00,31.7,11.2,30.17,North,359,6.0,17.0,42,0.00,,FEW060,0.00,VWS V14.00,2013-04-06 13:13:00,
2013-04-06 09:18:00,32.5,12.0,30.17,NNE,28,9.0,21.0,42,0.00,,FEW060,0.00,VWS V14.00,2013-04-06 13:18:00,
2013-04-06 09:23:00,32.7,11.6,30.18,NW,311,4.0,21.0,41,0.00,,FEW060,0.00,VWS V14.00,2013-04-06 13:23:00,
2013-04-06 09:28:00,32.4,11.3,30.17,North,356,4.0,8.0,41,0.00,,FEW060,0.00,VWS V14.00,2013-04-06 13:28:00,
2013-04-06 09:33:00,32.7,11.1,30.18,NW,323,4.0,11.0,40,0.00,,FEW060,0.00,VWS V14.00,2013-04-06 13:33:00,
2013-04-06 09:38:00,33.4,9.9,30.18,North,353,4.0,17.0,37,0.00,,FEW060,0.00,VWS V14.00,2013-04-06 13:38:00,
2013-04-06 09:43:00,33.1,9.7,30.18,NNW,329,4.0,17.0,37,0.00,,FEW060,0.00,VWS V14.00,2013-04-06 13:43:00,
2013-04-06 09:48:00,33.5,10.0,30.19,WNW,285,6.0,17.0,37,0.00,,FEW060,0.00,VWS V14.00,2013-04-06 13:48:00,
2013-04-06 09:53:00,33.7,9.0,30.19,SE,126,5.0,17.0,35,0.00,,FEW060,0.00,VWS V14.00,2013-04-06 13:53:00,
2013-04-06 09:58:00,33.4,8.7,30.19,NNW,332,9.0,9.0,35,0.00,,FEW060,0.00,VWS V14.00,2013-04-06 13:58:00,
2013-04-06 10:03:00,33.4,9.3,30.19,NW,326,3.0,12.0,36,0.00,,FEW060,0.00,VWS V14.00,2013-04-06 14:03:00,
2013-04-06 10:08:00,34.3,10.1,30.19,NNW,328,3.0,12.0,36,0.00,,FEW060,0.00,VWS V14.00,2013-04-06 14:08:00,
2013-04-06 10:13:00,34.4,8.9,30.19,NW,321,10.0,18.0,34,0.00,,FEW060,0.00,VWS V14.00,2013-04-06 14:13:00,
2013-04-06 10:18:00,34.0,9.2,30.20,WNW,288,3.0,18.0,35,0.00,,FEW060,0.00,VWS V14.00,2013-04-06 14:18:00,
2013-04-06 10:23:00,34.0,8.6,30.20,NE,39,6.0,18.0,34,0.00,,FEW060,0.00,VWS V14.00,2013-04-06 14:23:00,
2013-04-06 10:28:00,34.0,8.6,30.20,NNW,337,2.0,3.0,34,0.00,,FEW060,0.00,VWS V14.00,2013-04-06 14:28:00,
2013-04-06 10:33:00,33.8,7.8,30.21,NW,321,5.0,21.0,33,0.00,,FEW060,0.00,VWS V14.00,2013-04-06 14:33:00,
2013-04-06 10:38:00,34.5,9.0,30.20,WSW,256,1.0,21.0,34,0.00,,FEW060,0.00,VWS V14.00,2013-04-06 14:38:00,
2013-04-06 10:43:00,34.8,8.6,30.21,NNW,333,15.0,21.0,33,0.00,,FEW060,0.00,VWS V14.00,2013-04-06 14:43:00,
2013-04-06 10:48:00,35.1,8.9,30.21,North,11,5.0,21.0,33,0.00,,FEW060,0.00,VWS V14.00,2013-04-06 14:48:00,
2013-04-06 10:53:00,35.2,9.0,30.21,NW,312,4.0,21.0,33,0.00,,FEW060,0.00,VWS V14.00,2013-04-06 14:53:00,
2013-04-06 10:58:00,35.7,8.8,30.21,NW,317,3.0,7.0,32,0.00,,FEW060,0.00,VWS V14.00,2013-04-06 14:58:00,
2013-04-06 11:03:00,35.8,6.7,30.22,SW,219,10.0,16.0,29,0.00,,FEW060,0.00,VWS V14.00,2013-04-06 15:03:00,
2013-04-06 11:08:00,36.7,10.3,30.21,North,351,5.0,20.0,33,0.00,,FEW060,0.00,VWS V14.00,2013-04-06 15:08:00,
2013-04-06 11:13:00,37.3,9.4,30.22,NNW,339,6.0,20.0,31,0.00,,FEW060,0.00,VWS V14.00,2013-04-06 15:13:00,
2013-04-06 11:18:00,37.4,8.8,30.21,ENE,68,3.0,20.0,30,0.00,,FEW060,0.00,VWS V14.00,2013-04-06 15:18:00,
2013-04-06 11:23:00,37.5,8.1,30.21,NNE,20,2.0,20.0,29,0.00,,FEW060,0.00,VWS V14.00,2013-04-06 15:23:00,
2013-04-06 11:29:00,38.0,9.3,30.21,North,358,9.0,9.0,30,0.00,,FEW060,0.00,VWS V14.00,2013-04-06 15:29:00,
2013-04-06 11:34:00,37.4,8.1,30.21,WNW,294,4.0,17.0,29,0.00,,FEW060,0.00,VWS V14.00,2013-04-06 15:34:00,
2013-04-06 11:39:00,38.0,10.1,30.21,North,1,3.0,17.0,31,0.00,,FEW060,0.00,VWS V14.00,2013-04-06 15:39:00,
2013-04-06 11:44:00,38.4,10.4,30.22,NNW,347,7.0,17.0,31,0.00,,FEW060,0.00,VWS V14.00,2013-04-06 15:44:00,
2013-04-06 11:49:00,37.8,7.6,30.22,NNE,15,3.0,17.0,28,0.00,,FEW060,0.00,VWS V14.00,2013-04-06 15:49:00,
2013-04-06 11:54:00,38.0,9.3,30.22,North,358,5.0,17.0,30,0.00,,FEW060,0.00,VWS V14.00,2013-04-06 15:54:00,
2013-04-06 12:00:00,38.1,7.1,30.22,North,0,2.0,9.0,27,0.00,,CLR,0.00,VWS V14.00,2013-04-06 16:00:00,
2013-04-06 12:05:00,38.4,8.9,30.22,North,355,7.0,16.0,29,0.00,,CLR,0.00,VWS V14.00,2013-04-06 16:05:00,
2013-04-06 12:10:00,38.3,8.8,30.21,SSE,168,6.0,16.0,29,0.00,,CLR,0.00,VWS V14.00,2013-04-06 16:10:00,
2013-04-06 12:15:00,39.0,9.4,30.22,North,350,3.0,16.0,29,0.00,,CLR,0.00,VWS V14.00,2013-04-06 16:15:00,
2013-04-06 12:20:00,39.0,9.4,30.21,NW,324,1.0,16.0,29,0.00,,CLR,0.00,VWS V14.00,2013-04-06 16:20:00,
2013-04-06 12:25:00,39.1,8.8,30.22,NNW,343,8.0,16.0,28,0.00,,CLR,0.00,VWS V14.00,2013-04-06 16:25:00,
2013-04-06 12:30:00,38.3,7.3,30.21,NW,314,4.0,16.0,27,0.00,,CLR,0.00,VWS V14.00,2013-04-06 16:30:00,
2013-04-06 12:35:00,38.7,8.4,30.21,NNW,347,9.0,18.0,28,0.00,,CLR,0.00,VWS V14.00,2013-04-06 16:35:00,
2013-04-06 12:40:00,39.3,8.9,30.21,SSW,198,2.0,18.0,28,0.00,,CLR,0.00,VWS V14.00,2013-04-06 16:40:00,
2013-04-06 12:45:00,40.0,8.7,30.21,WNW,292,3.0,18.0,27,0.00,,CLR,0.00,VWS V14.00,2013-04-06 16:45:00,
2013-04-06 12:50:00,40.3,9.8,30.22,NNW,333,2.0,18.0,28,0.00,,CLR,0.00,VWS V14.00,2013-04-06 16:50:00,
2013-04-06 12:55:00,40.5,9.2,30.22,NW,321,4.0,18.0,27,0.00,,CLR,0.00,VWS V14.00,2013-04-06 16:55:00,
2013-04-06 13:00:00,40.8,9.4,30.22,NNW,328,3.0,7.0,27,0.00,,CLR,0.00,VWS V14.00,2013-04-06 17:00:00,
2013-04-06 13:05:00,41.5,10.0,30.21,North,0,3.0,11.0,27,0.00,,CLR,0.00,VWS V14.00,2013-04-06 17:05:00,
2013-04-06 13:10:00,42.1,10.6,30.22,WNW,291,4.0,11.0,27,0.00,,CLR,0.00,VWS V14.00,2013-04-06 17:10:00,
2013-04-06 13:15:00,41.4,9.9,30.22,NNW,329,4.0,15.0,27,0.00,,CLR,0.00,VWS V14.00,2013-04-06 17:15:00,
2013-04-06 13:20:00,41.0,9.6,30.22,NNW,331,14.0,15.0,27,0.00,,CLR,0.00,VWS V14.00,2013-04-06 17:20:00,
2013-04-06 13:25:00,40.5,9.2,30.21,NE,35,1.0,15.0,27,0.00,,CLR,0.00,VWS V14.00,2013-04-06 17:25:00,
2013-04-06 13:30:00,40.8,9.4,30.21,North,0,2.0,15.0,27,0.00,,CLR,0.00,VWS V14.00,2013-04-06 17:30:00,
2013-04-06 13:35:00,41.5,10.0,30.22,North,359,2.0,15.0,27,0.00,,CLR,0.00,VWS V14.00,2013-04-06 17:35:00,
2013-04-06 13:40:00,42.1,10.6,30.22,WSW,252,5.0,15.0,27,0.00,,CLR,0.00,VWS V14.00,2013-04-06 17:40:00,
2013-04-06 13:45:00,42.0,9.6,30.21,NE,34,7.0,15.0,26,0.00,,CLR,0.00,VWS V14.00,2013-04-06 17:45:00,
2013-04-06 13:50:00,41.8,10.3,30.21,WNW,284,5.0,15.0,27,0.00,,CLR,0.00,VWS V14.00,2013-04-06 17:50:00,
2013-04-06 13:55:00,41.9,9.5,30.21,NNE,20,4.0,15.0,26,0.00,,CLR,0.00,VWS V14.00,2013-04-06 17:55:00,
2013-04-06 14:00:00,42.3,10.7,30.21,NNW,342,4.0,11.0,27,0.00,,CLR,0.00,VWS V14.00,2013-04-06 18:00:00,
2013-04-06 14:05:00,42.7,11.1,30.21,NW,312,1.0,11.0,27,0.00,,CLR,0.00,VWS V14.00,2013-04-06 18:05:00,
2013-04-06 14:10:00,44.0,12.2,30.22,North,349,2.0,11.0,27,0.00,,CLR,0.00,VWS V14.00,2013-04-06 18:10:00,
2013-04-06 14:15:00,44.0,11.3,30.21,NW,315,3.0,11.0,26,0.00,,CLR,0.00,VWS V14.00,2013-04-06 18:15:00,
2013-04-06 14:20:00,43.5,11.8,30.21,NNE,12,4.0,12.0,27,0.00,,CLR,0.00,VWS V14.00,2013-04-06 18:20:00,
2013-04-06 14:25:00,43.5,11.8,30.21,NNW,334,4.0,12.0,27,0.00,,CLR,0.00,VWS V14.00,2013-04-06 18:25:00,
2013-04-06 14:31:00,43.5,11.8,30.21,WSW,238,1.0,9.0,27,0.00,,CLR,0.00,VWS V14.00,2013-04-06 18:31:00,
2013-04-06 14:35:00,43.8,12.0,30.21,SSW,194,3.0,9.0,27,0.00,,CLR,0.00,VWS V14.00,2013-04-06 18:35:00,
2013-04-06 14:40:00,44.3,12.4,30.21,West,270,2.0,9.0,27,0.00,,CLR,0.00,VWS V14.00,2013-04-06 18:40:00,
2013-04-06 14:45:00,43.8,11.2,30.21,West,273,9.0,11.0,26,0.00,,CLR,0.00,VWS V14.00,2013-04-06 18:45:00,
2013-04-06 14:50:00,42.2,8.9,30.21,NW,315,8.0,16.0,25,0.00,,CLR,0.00,VWS V14.00,2013-04-06 18:50:00,
2013-04-06 14:55:00,41.7,10.2,30.22,NNW,346,4.0,16.0,27,0.00,,CLR,0.00,VWS V14.00,2013-04-06 18:55:00,
2013-04-06 15:00:00,42.4,10.8,30.21,NW,317,4.0,11.0,27,0.00,,CLR,0.00,VWS V14.00,2013-04-06 19:00:00,
2013-04-06 15:05:00,43.1,10.6,30.21,North,0,3.0,11.0,26,0.00,,CLR,0.00,VWS V14.00,2013-04-06 19:05:00,
2013-04-06 15:11:00,43.7,11.9,30.21,NW,307,9.0,12.0,27,0.00,,CLR,0.00,VWS V14.00,2013-04-06 19:11:00,
2013-04-06 15:16:00,44.0,12.2,30.21,North,350,1.0,12.0,27,0.00,,CLR,0.00,VWS V14.00,2013-04-06 19:16:00,
2013-04-06 15:21:00,44.1,11.4,30.21,NNW,346,3.0,12.0,26,0.00,,CLR,0.00,VWS V14.00,2013-04-06 19:21:00,
2013-04-06 15:26:00,45.0,12.2,30.21,NW,315,5.0,12.0,26,0.00,,CLR,0.00,VWS V14.00,2013-04-06 19:26:00,
2013-04-06 15:31:00,44.4,12.5,30.21,SE,135,4.0,15.0,27,0.00,,CLR,0.00,VWS V14.00,2013-04-06 19:31:00,
2013-04-06 15:36:00,43.7,11.9,30.21,NNE,33,8.0,15.0,27,0.00,,CLR,0.00,VWS V14.00,2013-04-06 19:36:00,
2013-04-06 15:41:00,43.8,12.0,30.21,WNW,299,4.0,15.0,27,0.00,,CLR,0.00,VWS V14.00,2013-04-06 19:41:00,
2013-04-06 15:46:00,44.1,11.4,30.20,ENE,58,3.0,15.0,26,0.00,,CLR,0.00,VWS V14.00,2013-04-06 19:46:00,
2013-04-06 15:51:00,43.8,10.3,30.21,NW,326,5.0,15.0,25,0.00,,CLR,0.00,VWS V14.00,2013-04-06 19:51:00,
2013-04-06 15:57:00,43.5,10.9,30.21,NW,304,6.0,15.0,26,0.00,,CLR,0.00,VWS V14.00,2013-04-06 19:57:00,
2013-04-06 16:02:00,43.5,10.9,30.21,West,263,2.0,10.0,26,0.00,,CLR,0.00,VWS V14.00,2013-04-06 20:02:00,
2013-04-06 16:07:00,43.5,10.9,30.21,WNW,290,3.0,10.0,26,0.00,,CLR,0.00,VWS V14.00,2013-04-06 20:07:00,
2013-04-06 16:12:00,44.4,11.7,30.21,WNW,289,1.0,10.0,26,0.00,,CLR,0.00,VWS V14.00,2013-04-06 20:12:00,
2013-04-06 16:17:00,45.0,12.2,30.21,WSW,243,3.0,10.0,26,0.00,,CLR,0.00,VWS V14.00,2013-04-06 20:17:00,
2013-04-06 16:22:00,45.2,12.4,30.21,NW,310,2.0,10.0,26,0.00,,CLR,0.00,VWS V14.00,2013-04-06 20:22:00,
2013-04-06 16:27:00,45.2,12.4,30.21,WSW,240,1.0,10.0,26,0.00,,CLR,0.00,VWS V14.00,2013-04-06 20:27:00,
2013-04-06 16:32:00,45.3,11.6,30.21,WSW,252,5.0,9.0,25,0.00,,CLR,0.00,VWS V14.00,2013-04-06 20:32:00,
2013-04-06 16:37:00,44.7,11.1,30.22,North,356,10.0,10.0,25,0.00,,CLR,0.00,VWS V14.00,2013-04-06 20:37:00,
2013-04-06 16:42:00,44.4,10.8,30.22,North,0,4.0,10.0,25,0.00,,CLR,0.00,VWS V14.00,2013-04-06 20:42:00,
2013-04-06 16:47:00,44.0,10.4,30.22,North,7,9.0,16.0,25,0.00,,CLR,0.00,VWS V14.00,2013-04-06 20:47:00,
2013-04-06 16:52:00,44.0,10.4,30.22,NNW,347,4.0,16.0,25,0.00,,CLR,0.00,VWS V14.00,2013-04-06 20:52:00,
2013-04-06 16:58:00,43.7,10.2,30.22,North,349,4.0,16.0,25,0.00,,CLR,0.00,VWS V14.00,2013-04-06 20:58:00,
2013-04-06 17:03:00,44.3,11.6,30.22,NNW,331,5.0,7.0,26,0.00,,CLR,0.00,VWS V14.00,2013-04-06 21:03:00,
2013-04-06 17:08:00,44.4,11.7,30.22,NNE,15,3.0,13.0,26,0.00,,CLR,0.00,VWS V14.00,2013-04-06 21:08:00,
2013-04-06 17:13:00,44.5,11.8,30.23,WNW,286,5.0,13.0,26,0.00,,CLR,0.00,VWS V14.00,2013-04-06 21:13:00,
2013-04-06 17:18:00,44.3,11.6,30.23,NNW,332,0.0,13.0,26,0.00,,CLR,0.00,VWS V14.00,2013-04-06 21:18:00,
2013-04-06 17:23:00,44.4,11.7,30.23,NNW,336,3.0,13.0,26,0.00,,CLR,0.00,VWS V14.00,2013-04-06 21:23:00,
2013-04-06 17:28:00,44.4,10.8,30.23,NW,315,5.0,13.0,25,0.00,,CLR,0.00,VWS V14.00,2013-04-06 21:28:00,
2013-04-06 17:33:00,44.0,10.4,30.23,NW,318,3.0,6.0,25,0.00,,CLR,0.00,VWS V14.00,2013-04-06 21:33:00,
2013-04-06 17:38:00,43.8,10.3,30.24,North,8,3.0,12.0,25,0.00,,CLR,0.00,VWS V14.00,2013-04-06 21:38:00,
2013-04-06 17:43:00,43.4,9.9,30.24,West,268,2.0,12.0,25,0.00,,CLR,0.00,VWS V14.00,2013-04-06 21:43:00,
2013-04-06 17:48:00,43.4,9.9,30.24,WNW,297,2.0,12.0,25,0.00,,CLR,0.00,VWS V14.00,2013-04-06 21:48:00,
2013-04-06 17:53:00,43.3,10.7,30.24,WSW,238,2.0,12.0,26,0.00,,CLR,0.00,VWS V14.00,2013-04-06 21:53:00,
2013-04-06 17:58:00,43.0,11.3,30.24,North,357,6.0,12.0,27,0.00,,CLR,0.00,VWS V14.00,2013-04-06 21:58:00,
2013-04-06 18:03:00,42.5,10.1,30.25,NNW,348,4.0,8.0,26,0.00,,CLR,0.00,VWS V14.00,2013-04-06 22:03:00,
2013-04-06 18:08:00,42.4,10.0,30.25,NNW,335,5.0,10.0,26,0.00,,CLR,0.00,VWS V14.00,2013-04-06 22:08:00,
2013-04-06 18:13:00,42.2,9.8,30.25,NW,308,3.0,10.0,26,0.00,,CLR,0.00,VWS V14.00,2013-04-06 22:13:00,
2013-04-06 18:18:00,42.1,9.7,30.25,NW,320,4.0,10.0,26,0.00,,CLR,0.00,VWS V14.00,2013-04-06 22:18:00,
2013-04-06 18:23:00,42.0,8.7,30.25,NNW,332,1.0,14.0,25,0.00,,CLR,0.00,VWS V14.00,2013-04-06 22:23:00,
2013-04-06 18:28:00,41.8,8.6,30.25,NNW,346,1.0,14.0,25,0.00,,CLR,0.00,VWS V14.00,2013-04-06 22:28:00,
2013-04-06 18:33:00,41.8,9.4,30.26,North,349,1.0,4.0,26,0.00,,CLR,0.00,VWS V14.00,2013-04-06 22:33:00,
2013-04-06 18:38:00,41.7,9.4,30.26,North,352,4.0,8.0,26,0.00,,CLR,0.00,VWS V14.00,2013-04-06 22:38:00,
2013-04-06 18:43:00,41.5,9.2,30.27,NNW,338,2.0,8.0,26,0.00,,CLR,0.00,VWS V14.00,2013-04-06 22:43:00,
2013-04-06 18:48:00,41.4,9.1,30.27,NNW,339,2.0,10.0,26,0.00,,CLR,0.00,VWS V14.00,2013-04-06 22:48:00,
2013-04-06 18:53:00,41.2,9.8,30.27,NNW,341,1.0,10.0,27,0.00,,CLR,0.00,VWS V14.00,2013-04-06 22:53:00,
2013-04-06 18:58:00,41.1,9.7,30.27,NNW,342,0.0,0.0,27,0.00,,CLR,0.00,VWS V14.00,2013-04-06 22:58:00,
2013-04-06 19:03:00,40.8,9.4,30.27,NNW,342,3.0,3.0,27,0.00,,CLR,0.00,VWS V14.00,2013-04-06 23:03:00,
2013-04-06 19:08:00,40.7,9.3,30.27,NNW,342,1.0,5.0,27,0.00,,CLR,0.00,VWS V14.00,2013-04-06 23:08:00,
2013-04-06 19:13:00,40.4,9.1,30.27,NNW,342,2.0,5.0,27,0.00,,CLR,0.00,VWS V14.00,2013-04-06 23:13:00,
2013-04-06 19:18:00,40.1,8.8,30.27,NNW,342,1.0,5.0,27,0.00,,CLR,0.00,VWS V14.00,2013-04-06 23:18:00,
2013-04-06 19:23:00,39.7,9.3,30.28,NNW,342,0.0,5.0,28,0.00,,CLR,0.00,VWS V14.00,2013-04-06 23:23:00,
2013-04-06 19:28:00,39.3,8.9,30.28,NNW,342,0.0,2.0,28,0.00,,CLR,0.00,VWS V14.00,2013-04-06 23:28:00,
2013-04-06 19:33:00,38.8,9.3,30.28,NNW,342,0.0,2.0,29,0.00,,CLR,0.00,VWS V14.00,2013-04-06 23:33:00,
2013-04-06 19:39:00,38.3,8.8,30.28,NNW,342,0.0,2.0,29,0.00,,CLR,0.00,VWS V14.00,2013-04-06 23:39:00,
2013-04-06 19:44:00,37.8,9.2,30.29,NNW,342,0.0,2.0,30,0.00,,CLR,0.00,VWS V14.00,2013-04-06 23:44:00,
2013-04-06 19:49:00,37.0,10.6,30.29,NNW,342,0.0,3.0,33,0.00,,CLR,0.00,VWS V14.00,2013-04-06 23:49:00,
2013-04-06 19:54:00,36.5,9.5,30.29,NNW,342,0.0,3.0,32,0.00,,CLR,0.00,VWS V14.00,2013-04-06 23:54:00,
2013-04-06 19:59:00,36.1,9.1,30.30,NNW,342,1.0,2.0,32,0.00,,CLR,0.00,VWS V14.00,2013-04-06 23:59:00,
2013-04-06 20:04:00,35.7,8.1,30.30,NNW,342,0.0,2.0,31,0.00,,CLR,0.00,VWS V14.00,2013-04-07 00:04:00,
2013-04-06 20:09:00,35.4,9.2,30.30,NNW,342,2.0,2.0,33,0.00,,CLR,0.00,VWS V14.00,2013-04-07 00:09:00,
2013-04-06 20:14:00,35.0,9.5,30.30,NNW,342,2.0,3.0,34,0.00,,CLR,0.00,VWS V14.00,2013-04-07 00:14:00,
2013-04-06 20:20:00,34.7,7.9,30.31,NNW,342,1.0,3.0,32,0.00,,CLR,0.00,VWS V14.00,2013-04-07 00:20:00,
2013-04-06 20:25:00,34.7,7.9,30.31,NNW,342,1.0,3.0,32,0.00,,CLR,0.00,VWS V14.00,2013-04-07 00:25:00,
2013-04-06 20:30:00,34.6,8.5,30.31,NNW,342,2.0,2.0,33,0.00,,CLR,0.00,VWS V14.00,2013-04-07 00:30:00,
2013-04-06 20:35:00,34.3,9.5,30.31,NNW,342,2.0,3.0,35,0.00,,CLR,0.00,VWS V14.00,2013-04-07 00:35:00,
2013-04-06 20:40:00,34.1,8.0,30.30,NNW,342,0.0,3.0,33,0.00,,CLR,0.00,VWS V14.00,2013-04-07 00:40:00,
2013-04-06 20:45:00,34.0,8.6,30.31,NNW,342,1.0,3.0,34,0.00,,CLR,0.00,VWS V14.00,2013-04-07 00:45:00,
2013-04-06 20:50:00,33.7,8.3,30.31,NNW,342,1.0,3.0,34,0.00,,CLR,0.00,VWS V14.00,2013-04-07 00:50:00,
2013-04-06 20:55:00,33.5,8.1,30.30,NNW,342,1.0,3.0,34,0.00,,CLR,0.00,VWS V14.00,2013-04-07 00:55:00,
2013-04-06 21:00:00,33.5,8.1,30.31,NNW,342,0.0,2.0,34,0.00,,CLR,0.00,VWS V14.00,2013-04-07 01:00:00,
2013-04-06 21:05:00,33.7,7.7,30.31,NNW,342,0.0,2.0,33,0.00,,CLR,0.00,VWS V14.00,2013-04-07 01:05:00,
2013-04-06 21:11:00,33.5,11.2,30.31,NNW,342,2.0,3.0,39,0.00,,CLR,0.00,VWS V14.00,2013-04-07 01:11:00,
2013-04-06 21:16:00,33.3,8.0,30.31,NNW,342,0.0,3.0,34,0.00,,CLR,0.00,VWS V14.00,2013-04-07 01:16:00,
2013-04-06 21:21:00,33.3,6.6,30.31,NNW,342,0.0,3.0,32,0.00,,CLR,0.00,VWS V14.00,2013-04-07 01:21:00,
2013-04-06 21:26:00,33.3,7.3,30.31,NNW,342,0.0,3.0,33,0.00,,CLR,0.00,VWS V14.00,2013-04-07 01:26:00,
2013-04-06 21:31:00,33.3,8.0,30.31,NNW,342,2.0,2.0,34,0.00,,CLR,0.00,VWS V14.00,2013-04-07 01:31:00,
2013-04-06 21:36:00,33.0,7.7,30.31,NNW,342,1.0,3.0,34,0.00,,CLR,0.00,VWS V14.00,2013-04-07 01:36:00,
2013-04-06 21:41:00,33.0,6.4,30.31,NNW,342,1.0,3.0,32,0.00,,CLR,0.00,VWS V14.00,2013-04-07 01:41:00,
2013-04-06 21:46:00,33.0,7.1,30.31,NNW,342,1.0,3.0,33,0.00,,CLR,0.00,VWS V14.00,2013-04-07 01:46:00,
2013-04-06 21:52:00,33.0,7.1,30.31,NNW,342,1.0,3.0,33,0.00,,CLR,0.00,VWS V14.00,2013-04-07 01:52:00,
2013-04-06 21:57:00,33.0,7.1,30.31,NNW,342,1.0,3.0,33,0.00,,CLR,0.00,VWS V14.00,2013-04-07 01:57:00,
2013-04-06 22:02:00,32.7,6.8,30.31,NNW,342,1.0,3.0,33,0.00,,CLR,0.00,VWS V14.00,2013-04-07 02:02:00,
2013-04-06 22:07:00,32.7,8.7,30.32,NNW,342,1.0,3.0,36,0.00,,CLR,0.00,VWS V14.00,2013-04-07 02:07:00,
2013-04-06 22:12:00,32.6,6.7,30.32,NNW,342,1.0,3.0,33,0.00,,CLR,0.00,VWS V14.00,2013-04-07 02:12:00,
2013-04-06 22:17:00,32.6,6.7,30.31,NNW,342,1.0,3.0,33,0.00,,CLR,0.00,VWS V14.00,2013-04-07 02:17:00,
2013-04-06 22:22:00,32.6,6.7,30.32,NNW,342,1.0,3.0,33,0.00,,CLR,0.00,VWS V14.00,2013-04-07 02:22:00,
2013-04-06 22:27:00,32.4,6.5,30.32,NNW,342,2.0,3.0,33,0.00,,CLR,0.00,VWS V14.00,2013-04-07 02:27:00,
2013-04-06 22:33:00,32.3,6.4,30.32,NNW,342,2.0,3.0,33,0.00,,CLR,0.00,VWS V14.00,2013-04-07 02:33:00,
2013-04-06 22:38:00,32.3,6.4,30.32,NNW,342,0.0,3.0,33,0.00,,CLR,0.00,VWS V14.00,2013-04-07 02:38:00,
2013-04-06 22:43:00,32.3,7.7,30.32,NNW,342,1.0,3.0,35,0.00,,CLR,0.00,VWS V14.00,2013-04-07 02:43:00,
2013-04-06 22:48:00,32.3,7.7,30.32,NNW,342,1.0,3.0,35,0.00,,CLR,0.00,VWS V14.00,2013-04-07 02:48:00,
2013-04-06 22:53:00,32.3,7.1,30.32,NNW,342,1.0,3.0,34,0.00,,CLR,0.00,VWS V14.00,2013-04-07 02:53:00,
2013-04-06 22:58:00,32.4,7.8,30.32,NNW,342,1.0,3.0,35,0.00,,CLR,0.00,VWS V14.00,2013-04-07 02:58:00,
2013-04-06 23:03:00,32.3,7.1,30.32,NNW,342,1.0,2.0,34,0.00,,CLR,0.00,VWS V14.00,2013-04-07 03:03:00,
2013-04-06 23:08:00,32.3,7.1,30.32,NNW,342,1.0,2.0,34,0.00,,CLR,0.00,VWS V14.00,2013-04-07 03:08:00,
2013-04-06 23:13:00,32.3,7.7,30.32,NNW,342,2.0,3.0,35,0.00,,CLR,0.00,VWS V14.00,2013-04-07 03:13:00,
2013-04-06 23:18:00,32.3,7.1,30.32,NNW,342,1.0,3.0,34,0.00,,CLR,0.00,VWS V14.00,2013-04-07 03:18:00,
2013-04-06 23:23:00,32.3,7.7,30.32,NNW,342,1.0,3.0,35,0.00,,CLR,0.00,VWS V14.00,2013-04-07 03:23:00,
2013-04-06 23:28:00,32.3,8.4,30.33,NNW,342,1.0,3.0,36,0.00,,CLR,0.00,VWS V14.00,2013-04-07 03:28:00,
2013-04-06 23:33:00,32.3,9.0,30.32,NNW,342,1.0,3.0,37,0.00,,CLR,0.00,VWS V14.00,2013-04-07 03:33:00,
2013-04-06 23:38:00,32.3,7.7,30.33,NNW,342,1.0,3.0,35,0.00,,CLR,0.00,VWS V14.00,2013-04-07 03:38:00,
2013-04-06 23:43:00,32.6,7.3,30.32,South,190,1.0,6.0,34,0.00,,CLR,0.00,VWS V14.00,2013-04-07 03:43:00,
2013-04-06 23:48:00,33.4,7.4,30.33,South,190,3.0,6.0,33,0.00,,CLR,0.00,VWS V14.00,2013-04-07 03:48:00,
2013-04-06 23:53:00,33.5,8.1,30.32,South,190,1.0,6.0,34,0.00,,CLR,0.00,VWS V14.00,2013-04-07 03:53:00,